This is the latest recevied weather packets stored in our database for station/object KF5JED-13. If no packets are shown the sender has not sent any weather packets the latest 10 day(s).
| Time | Temp. | Humidity | Pressure | Rain* | Wind** | Luminosity | Snow |
|---|---|---|---|---|---|---|---|
| 1777341696 | 17.22° C | 16% | 1011.1 hPa | 0 mm | - | 0 W/m² | - |
| 1777341392 | 17.78° C | 16% | 1011.1 hPa | 0 mm | - | 0 W/m² | - |
| 1777341088 | 17.78° C | 16% | 1011 hPa | 0 mm | - | 0 W/m² | - |
| 1777340785 | 18.89° C | 15% | 1011 hPa | 0 mm | - | 0 W/m² | - |
| 1777340484 | 19.44° C | 15% | 1010.7 hPa | 0 mm | - | 1 W/m² | - |
| 1777340181 | 20° C | 15% | 1010.9 hPa | 0 mm | - | 2 W/m² | - |
| 1777339877 | 20.56° C | 14% | 1010.8 hPa | 0 mm | - | 3 W/m² | - |
| 1777339272 | 23.33° C | 13% | 1010.7 hPa | 0 mm | - | 9 W/m² | - |
| 1777338970 | 23.89° C | 13% | 1010.7 hPa | 0 mm | - | 13 W/m² | - |
| 1777338667 | 23.89° C | 12% | 1010.4 hPa | 0 mm | - | 18 W/m² | - |
| 1777338365 | 24.44° C | 12% | 1010.2 hPa | 0 mm | - | 22 W/m² | - |
| 1777338061 | 25° C | 12% | 1010.4 hPa | 0 mm | - | 26 W/m² | - |
| 1777337757 | 25° C | 12% | 1010.6 hPa | 0 mm | - | 31 W/m² | - |
| 1777337455 | 25.56° C | 12% | 1010.4 hPa | 0 mm | - | 42 W/m² | - |
| 1777337151 | 25.56° C | 12% | 1010.2 hPa | 0 mm | - | 50 W/m² | - |
| 1777336548 | 25.56° C | 12% | 1010.3 hPa | 0 mm | - | 70 W/m² | - |
| 1777336245 | 25.56° C | 11% | 1010.3 hPa | 0 mm | - | 82 W/m² | - |
| 1777335034 | 26.11° C | 12% | 1010.1 hPa | 0 mm | - | 138 W/m² | - |
| 1777329285 | 27.22° C | 14% | 1009.6 hPa | 0 mm | - | 441 W/m² | - |
| 1777313538 | 24.44° C | 18% | 1010.1 hPa | 0 mm | - | 858 W/m² | - |
| 1777313235 | 23.33° C | 20% | 1010.1 hPa | 0 mm | - | 860 W/m² | - |
| 1777311411 | 23.33° C | 19% | 1010.2 hPa | 0 mm | - | 833 W/m² | - |
| 1777311108 | 23.33° C | 20% | 1010.2 hPa | 0 mm | - | 823 W/m² | - |
| 1777310806 | 23.33° C | 20% | 1010.4 hPa | 0 mm | - | 816 W/m² | - |
| 1777310503 | 22.78° C | 20% | 1010.1 hPa | 0 mm | - | 810 W/m² | - |
* Rain latest hour (hover to see other rain measurements)
** Current wind speed in m/s (hover to see current wind gust speed)